QPF
0.01 0.01 0.01 0.01 0.00 0.00 0.00 0.00 0.00 0.00 0.00 0.00 0.00 0.00 0.00 0.00 0.00 0.00 0.00 0.00 0.00 0.00 0.00 0.00 0.00 0.00 0.00 0.01 0.01 0.01 0.01 0.02 0.02 0.02 0.03 0.04 0.05 0.05
0.01 0.01 0.01 0.00 0.00 0.00 0.00 0.00 0.00 0.00 0.00 0.00 0.00 0.00 0.00 0.00 0.00 0.00 0.00 0.00 0.00 0.00 0.00 0.00 0.00 0.00 0.00 0.01 0.01 0.01 0.01 0.02 0.02 0.03 0.03 0.04 0.04 0.05
0.00 0.00 0.00 0.00 0.00 0.00 0.00 0.00 0.00 0.00 0.00 0.00 0.00 0.00 0.00 0.00 0.00 0.00 0.00 0.00 0.00 0.00 0.00 0.00 0.00 0.00 0.00 0.01 0.01 0.01 0.02 0.02 0.02 0.02 0.02 0.03 0.04 0.04
0.00 0.00 0.00 0.00 0.00 0.00 0.00 0.00 0.00 0.00 0.00 0.00 0.00 0.00 0.00 0.00 0.00 0.00 0.00 0.00 0.00 0.00 0.00 0.00 0.00 0.00 0.00 0.00 0.01 0.01 0.02 0.02 0.02 0.02 0.02 0.03 0.03 0.04
0.00 0.00 0.00 0.00 0.00 0.00 0.00 0.00 0.00 0.00 0.00 0.00 0.00 0.00 0.00 0.00 0.00 0.00 0.00 0.00 0.00 0.00 0.00 0.00 0.00 0.00 0.00 0.00 0.01 0.01 0.01 0.01 0.02 0.02 0.02 0.03 0.03 0.03
0.00 0.00 0.00 0.00 0.00 0.00 0.00 0.00 0.01 0.01 0.01 0.01 0.01 0.00 0.00 0.00 0.00 0.00 0.00 0.00 0.00 0.00 0.00 0.00 0.00 0.00 0.00 0.00 0.00 0.01 0.01 0.01 0.02 0.02 0.02 0.02 0.02 0.02
0.00 0.00 0.00 0.00 0.00 0.00 0.01 0.01 0.01 0.01 0.02 0.02 0.02 0.01 0.01 0.01 0.00 0.00 0.00 0.00 0.00 0.00 0.00 0.00 0.00 0.00 0.00 0.00 0.00 0.01 0.01 0.02 0.02 0.02 0.02 0.02 0.02 0.02
0.01 0.01 0.01 0.01 0.01 0.01 0.01 0.01 0.02 0.02 0.02 0.02 0.02 0.01 0.01 0.01 0.01 0.00 0.00 0.00 0.00 0.00 0.00 0.00 0.00 0.00 0.00 0.00 0.00 0.01 0.01 0.02 0.02 0.02 0.02 0.02 0.02 0.02
0.01 0.01 0.01 0.01 0.01 0.01 0.01 0.02 0.02 0.02 0.02 0.01 0.01 0.02 0.02 0.01 0.01 0.00 0.00 0.00 0.00 0.00 0.00 0.00 0.00 0.00 0.00 0.00 0.00 0.01 0.01 0.01 0.01 0.01 0.02 0.02 0.02 0.02
0.01 0.01 0.01 0.01 0.01 0.01 0.01 0.01 0.01 0.01 0.01 0.01 0.01 0.01 0.00 0.00 0.00 0.00 0.00 0.00 0.00 0.00 0.00 0.00 0.00 0.00 0.00 0.00 0.00 0.00 0.00 0.00 0.01 0.01 0.01 0.02 0.02 0.02
0.00 0.00 0.00 0.00 0.01 0.01 0.00 0.00 0.00 0.01 0.01 0.01 0.01 0.00 0.00 0.00 0.00 0.00 0.00 0.00 0.00 0.00 0.00 0.00 0.00 0.00 0.00 0.00 0.00 0.00 0.00 0.00 0.00 0.01 0.01 0.01 0.01 0.01
0.00 0.00 0.01 0.01 0.01 0.01 0.00 0.01 0.01 0.01 0.01 0.01 0.00 0.00 0.00 0.00 0.00 0.00 0.00 0.00 0.01 0.01 0.00 0.01 0.01 0.00 0.01 0.00 0.00 0.00 0.00 0.00 0.00 0.00 0.00 0.00 0.01 0.01
0.00 0.00 0.00 0.01 0.01 0.01 0.01 0.01 0.01 0.01 0.01 0.01 0.01 0.01 0.01 0.01 0.01 0.00 0.00 0.00 0.01 0.01 0.00 0.01 0.01 0.01 0.01 0.00 0.00 0.00 0.00 0.00 0.00 0.00 0.00 0.00 0.00 0.01
0.00 0.00 0.00 0.01 0.01 0.01 0.01 0.00 0.00 0.00 0.00 0.00 0.00 0.00 0.00 0.00 0.00 0.00 0.00 0.00 0.00 0.00 0.00 0.01 0.01 0.01 0.01 0.01 0.00 0.00 0.00 0.00 0.00 0.00 0.00 0.00 0.00 0.00
0.00 0.01 0.01 0.01 0.01 0.01 0.01 0.00 0.00 0.00 0.00 0.00 0.00 0.00 0.00 0.00 0.00 0.00 0.00 0.00 0.00 0.00 0.00 0.00 0.00 0.00 0.01 0.01 0.00 0.00 0.00 0.00 0.00 0.00 0.00 0.00 0.00 0.00
0.01 0.01 0.01 0.01 0.01 0.00 0.00 0.00 0.00 0.00 0.00 0.00 0.00 0.00 0.01 0.01 0.01 0.01 0.01 0.00 0.00 0.00 0.00 0.00 0.00 0.00 0.00 0.00 0.00 0.00 0.00 0.00 0.00 0.00 0.00 0.00 0.00 0.00
0.01 0.00 0.00 0.00 0.00 0.00 0.00 0.00 0.00 0.00 0.00 0.00 0.00 0.00 0.01 0.01 0.01 0.01 0.01 0.00 0.00 0.00 0.00 0.00 0.00 0.00 0.00 0.00 0.00 0.00 0.00 0.00 0.00 0.00 0.00 0.00 0.00 0.00
0.01 0.00 0.00 0.00 0.00 0.00 0.00 0.00 0.00 0.00 0.00 0.00 0.00 0.00 0.01 0.01 0.01 0.00 0.00 0.00 0.00 0.00 0.00 0.00 0.00 0.00 0.00 0.00 0.00 0.00 0.00 0.00 0.00 0.00 0.00 0.00 0.00 0.00
0.00 0.00 0.00 0.00 0.00 0.00 0.00 0.00 0.00 0.00 0.00 0.00 0.01 0.01 0.01 0.01 0.00 0.00 0.00 0.00 0.00 0.00 0.00 0.00 0.00 0.01 0.01 0.00 0.00 0.00 0.00 0.00 0.00 0.00 0.00 0.00 0.00 0.00
0.00 0.00 0.00 0.00 0.00 0.00 0.00 0.00 0.00 0.00 0.00 0.00 0.00 0.01 0.01 0.01 0.01 0.01 0.00 0.00 0.00 0.00 0.00 0.00 0.00 0.01 0.02 0.01 0.01 0.00 0.00 0.01 0.01 0.01 0.00 0.00 0.00 0.00
0.00 0.00 0.00 0.00 0.00 0.00 0.00 0.00 0.00 0.00 0.00 0.00 0.00 0.00 0.00 0.00 0.00 0.00 0.00 0.00 0.00 0.00 0.00 0.00 0.00 0.00 0.00 0.00 0.00 0.00 0.00 0.00 0.01 0.02 0.02 0.01 0.01 0.00
0.00 0.00 0.00 0.00 0.00 0.00 0.00 0.00 0.00 0.00 0.01 0.01 0.01 0.01 0.01 0.01 0.01 0.01 0.01 0.01 0.01 0.00 0.00 0.00 0.00 0.00 0.00 0.00 0.00 0.00 0.00 0.00 0.00 0.00 0.01 0.03 0.05 0.05
0.00 0.00 0.00 0.00 0.00 0.00 0.00 0.00 0.00 0.00 0.00 0.01 0.01 0.01 0.01 0.01 0.01 0.01 0.01 0.01 0.01 0.00 0.00 0.00 0.00 0.00 0.00 0.00 0.00 0.00 0.00 0.00 0.00 0.00 0.00 0.00 0.01 0.02
MSLP
1016.61 1017.28 1017.94 1018.56 1019.10 1019.51 1019.79 1019.92 1019.92 1019.82 1019.65 1019.45 1019.24 1019.04 1018.88 1018.74 1018.64 1018.57 1018.52 1018.49 1018.48 1018.48 1018.49 1018.50 1018.50 1018.48 1018.43 1018.35 1018.22 1018.05 1017.84 1017.61 1017.35 1017.09 1016.82 1016.55 1016.28 1016.01
1015.90 1016.54 1017.19 1017.81 1018.36 1018.82 1019.16 1019.36 1019.44 1019.41 1019.31 1019.14 1018.94 1018.75 1018.56 1018.39 1018.25 1018.14 1018.05 1018.00 1017.97 1017.95 1017.96 1017.96 1017.96 1017.94 1017.89 1017.79 1017.66 1017.48 1017.27 1017.02 1016.76 1016.49 1016.22 1015.94 1015.67 1015.41
1015.18 1015.79 1016.41 1017.02 1017.59 1018.08 1018.48 1018.76 1018.92 1018.98 1018.95 1018.84 1018.69 1018.51 1018.31 1018.12 1017.95 1017.80 1017.67 1017.58 1017.52 1017.47 1017.45 1017.43 1017.41 1017.37 1017.30 1017.19 1017.04 1016.85 1016.63 1016.38 1016.12 1015.85 1015.59 1015.32 1015.07 1014.82
1014.47 1015.04 1015.64 1016.23 1016.80 1017.32 1017.77 1018.13 1018.38 1018.53 1018.59 1018.56 1018.46 1018.31 1018.14 1017.95 1017.75 1017.57 1017.41 1017.28 1017.17 1017.09 1017.03 1016.97 1016.92 1016.84 1016.74 1016.60 1016.43 1016.23 1016.00 1015.75 1015.49 1015.23 1014.98 1014.73 1014.50 1014.28
1013.78 1014.33 1014.90 1015.47 1016.04 1016.58 1017.07 1017.49 1017.83 1018.07 1018.22 1018.27 1018.25 1018.17 1018.03 1017.85 1017.66 1017.47 1017.28 1017.11 1016.97 1016.84 1016.74 1016.64 1016.53 1016.42 1016.27 1016.11 1015.90 1015.68 1015.43 1015.17 1014.92 1014.67 1014.43 1014.21 1014.00 1013.80
1013.16 1013.69 1014.23 1014.78 1015.35 1015.89 1016.41 1016.88 1017.29 1017.62 1017.86 1018.01 1018.07 1018.05 1017.97 1017.83 1017.66 1017.47 1017.28 1017.09 1016.92 1016.75 1016.61 1016.46 1016.31 1016.15 1015.96 1015.75 1015.51 1015.26 1014.99 1014.72 1014.45 1014.20 1013.97 1013.76 1013.57 1013.39
1012.64 1013.15 1013.68 1014.22 1014.76 1015.31 1015.85 1016.36 1016.82 1017.22 1017.54 1017.78 1017.93 1017.99 1017.97 1017.89 1017.76 1017.59 1017.40 1017.21 1017.02 1016.83 1016.64 1016.46 1016.27 1016.06 1015.83 1015.57 1015.30 1015.01 1014.71 1014.41 1014.13 1013.86 1013.62 1013.40 1013.20 1013.03
1012.27 1012.78 1013.29 1013.81 1014.35 1014.90 1015.44 1015.97 1016.47 1016.92 1017.31 1017.62 1017.85 1017.99 1018.04 1018.02 1017.93 1017.80 1017.63 1017.44 1017.24 1017.04 1016.83 1016.61 1016.39 1016.14 1015.87 1015.57 1015.26 1014.93 1014.59 1014.26 1013.94 1013.64 1013.37 1013.12 1012.91 1012.71
1012.07 1012.59 1013.10 1013.62 1014.15 1014.69 1015.23 1015.77 1016.29 1016.78 1017.21 1017.58 1017.87 1018.07 1018.19 1018.22 1018.18 1018.08 1017.94 1017.76 1017.57 1017.35 1017.13 1016.89 1016.63 1016.36 1016.05 1015.73 1015.37 1015.00 1014.63 1014.25 1013.88 1013.54 1013.22 1012.93 1012.67 1012.44
1012.06 1012.61 1013.14 1013.66 1014.19 1014.73 1015.27 1015.82 1016.35 1016.85 1017.31 1017.71 1018.03 1018.27 1018.43 1018.50 1018.50 1018.43 1018.30 1018.14 1017.94 1017.72 1017.49 1017.23 1016.96 1016.66 1016.33 1015.98 1015.60 1015.19 1014.77 1014.35 1013.93 1013.53 1013.15 1012.81 1012.49 1012.22
1012.23 1012.82 1013.39 1013.94 1014.49 1015.03 1015.57 1016.11 1016.64 1017.14 1017.61 1018.01 1018.35 1018.61 1018.78 1018.87 1018.88 1018.82 1018.70 1018.53 1018.33 1018.11 1017.86 1017.60 1017.31 1016.99 1016.65 1016.27 1015.87 1015.43 1014.98 1014.51 1014.04 1013.59 1013.15 1012.75 1012.38 1012.06
1012.56 1013.21 1013.82 1014.42 1014.99 1015.56 1016.11 1016.65 1017.17 1017.66 1018.11 1018.50 1018.83 1019.07 1019.24 1019.31 1019.31 1019.24 1019.11 1018.93 1018.72 1018.48 1018.22 1017.94 1017.63 1017.31 1016.95 1016.55 1016.12 1015.67 1015.18 1014.68 1014.17 1013.67 1013.19 1012.73 1012.32 1011.95
1013.00 1013.72 1014.40 1015.05 1015.67 1016.26 1016.83 1017.36 1017.87 1018.35 1018.77 1019.14 1019.43 1019.65 1019.78 1019.83 1019.79 1019.69 1019.54 1019.33 1019.09 1018.83 1018.54 1018.24 1017.91 1017.56 1017.19 1016.77 1016.32 1015.84 1015.33 1014.80 1014.26 1013.73 1013.21 1012.73 1012.28 1011.88
1013.51 1014.31 1015.07 1015.78 1016.45 1017.08 1017.66 1018.20 1018.70 1019.15 1019.54 1019.87 1020.12 1020.29 1020.38 1020.38 1020.31 1020.17 1019.97 1019.73 1019.45 1019.15 1018.84 1018.50 1018.14 1017.76 1017.35 1016.91 1016.43 1015.92 1015.39 1014.83 1014.28 1013.72 1013.19 1012.68 1012.22 1011.81
1014.07 1014.95 1015.78 1016.55 1017.27 1017.93 1018.53 1019.07 1019.56 1019.98 1020.34 1020.63 1020.83 1020.96 1020.99 1020.95 1020.83 1020.65 1020.41 1020.13 1019.82 1019.47 1019.11 1018.73 1018.33 1017.90 1017.45 1016.96 1016.44 1015.90 1015.33 1014.75 1014.18 1013.61 1013.07 1012.56 1012.09 1011.68
1014.66 1015.60 1016.49 1017.32 1018.07 1018.76 1019.37 1019.91 1020.39 1020.79 1021.11 1021.36 1021.53 1021.60 1021.60 1021.51 1021.36 1021.14 1020.86 1020.54 1020.19 1019.80 1019.39 1018.96 1018.50 1018.01 1017.49 1016.94 1016.37 1015.77 1015.16 1014.55 1013.95 1013.37 1012.83 1012.32 1011.86 1011.45
1015.27 1016.26 1017.18 1018.04 1018.81 1019.51 1020.13 1020.66 1021.12 1021.50 1021.80 1022.02 1022.15 1022.20 1022.16 1022.05 1021.86 1021.61 1021.31 1020.96 1020.57 1020.15 1019.69 1019.20 1018.67 1018.11 1017.52 1016.89 1016.24 1015.58 1014.91 1014.25 1013.62 1013.02 1012.46 1011.95 1011.50 1011.09
1015.90 1016.90 1017.83 1018.69 1019.47 1020.17 1020.78 1021.30 1021.75 1022.11 1022.38 1022.58 1022.68 1022.71 1022.66 1022.52 1022.33 1022.07 1021.75 1021.38 1020.97 1020.51 1020.01 1019.46 1018.87 1018.24 1017.56 1016.85 1016.11 1015.37 1014.63 1013.91 1013.22 1012.59 1012.01 1011.48 1011.02 1010.61
1016.54 1017.52 1018.44 1019.28 1020.04 1020.72 1021.31 1021.83 1022.25 1022.60 1022.86 1023.03 1023.13 1023.14 1023.08 1022.94 1022.74 1022.48 1022.16 1021.79 1021.36 1020.88 1020.35 1019.76 1019.11 1018.41 1017.66 1016.86 1016.04 1015.21 1014.39 1013.59 1012.85 1012.16 1011.54 1010.99 1010.50 1010.06
1017.17 1018.12 1019.00 1019.81 1020.54 1021.19 1021.76 1022.25 1022.66 1022.99 1023.24 1023.40 1023.49 1023.50 1023.43 1023.30 1023.10 1022.84 1022.53 1022.16 1021.73 1021.25 1020.70 1020.08 1019.39 1018.64 1017.83 1016.96 1016.07 1015.16 1014.26 1013.39 1012.58 1011.83 1011.15 1010.54 1010.01 1009.53
1017.78 1018.67 1019.51 1020.27 1020.96 1021.58 1022.13 1022.60 1022.99 1023.31 1023.55 1023.71 1023.79 1023.79 1023.72 1023.59 1023.40 1023.15 1022.84 1022.49 1022.07 1021.59 1021.04 1020.42 1019.72 1018.94 1018.09 1017.19 1016.24 1015.27 1014.31 1013.38 1012.49 1011.67 1010.92 1010.25 1009.65 1009.11
1018.35 1019.18 1019.95 1020.67 1021.32 1021.91 1022.43 1022.88 1023.27 1023.57 1023.80 1023.95 1024.03 1024.02 1023.95 1023.82 1023.63 1023.39 1023.10 1022.76 1022.36 1021.90 1021.37 1020.77 1020.08 1019.31 1018.46 1017.54 1016.58 1015.58 1014.58 1013.59 1012.64 1011.75 1010.93 1010.18 1009.50 1008.89
1018.84 1019.61 1020.34 1021.00 1021.62 1022.18 1022.68 1023.12 1023.50 1023.79 1024.01 1024.15 1024.22 1024.20 1024.12 1023.99 1023.80 1023.56 1023.28 1022.96 1022.59 1022.17 1021.68 1021.11 1020.47 1019.74 1018.92 1018.03 1017.07 1016.08 1015.06 1014.05 1013.05 1012.11 1011.21 1010.38 1009.62 1008.93
Thickness
5603 5597 5592 5586 5580 5575 5568 5561 5552 5544 5540 5537 5533 5529 5523 5516 5509 5502 5495 5488 5480 5473 5467 5460 5454 5447 5440 5434 5427 5421 5415 5410 5405 5401 5397 5393 5389 5386
5599 5593 5587 5581 5575 5569 5563 5556 5550 5542 5535 5531 5526 5520 5514 5508 5501 5493 5486 5478 5470 5463 5457 5450 5443 5436 5429 5422 5415 5409 5403 5398 5393 5388 5384 5380 5376 5372
5595 5589 5583 5576 5570 5563 5556 5550 5542 5536 5529 5524 5517 5512 5505 5498 5491 5484 5476 5468 5460 5453 5446 5439 5432 5425 5417 5411 5404 5397 5392 5386 5380 5375 5371 5367 5362 5358
5591 5584 5578 5571 5564 5557 5550 5543 5537 5530 5523 5516 5509 5502 5496 5489 5482 5474 5466 5458 5450 5443 5436 5428 5421 5413 5406 5399 5392 5386 5380 5373 5368 5362 5357 5353 5348 5344
5587 5580 5573 5566 5558 5551 5544 5538 5530 5523 5516 5508 5500 5493 5486 5479 5471 5463 5455 5447 5439 5432 5424 5416 5409 5402 5394 5388 5381 5374 5368 5362 5356 5350 5344 5339 5335 5331
5582 5576 5570 5563 5556 5548 5540 5532 5524 5515 5507 5499 5492 5484 5476 5469 5461 5452 5445 5436 5429 5421 5412 5404 5397 5390 5382 5376 5371 5364 5357 5351 5345 5339 5333 5328 5324 5320
5576 5571 5565 5558 5552 5544 5536 5527 5518 5509 5500 5492 5484 5475 5467 5459 5451 5442 5433 5425 5418 5410 5401 5393 5387 5380 5372 5365 5359 5353 5347 5341 5335 5330 5324 5319 5315 5311
5571 5564 5558 5551 5545 5538 5531 5523 5515 5505 5495 5485 5477 5468 5460 5452 5442 5432 5422 5413 5406 5401 5390 5384 5377 5369 5362 5356 5349 5343 5338 5332 5326 5320 5315 5311 5307 5304
5565 5558 5551 5545 5538 5531 5523 5515 5507 5500 5492 5482 5472 5463 5454 5445 5435 5424 5412 5401 5393 5388 5380 5373 5366 5359 5353 5346 5340 5334 5329 5322 5317 5312 5307 5304 5301 5298
5559 5553 5545 5538 5531 5523 5515 5506 5498 5491 5484 5476 5467 5457 5447 5437 5427 5416 5405 5394 5385 5377 5369 5361 5356 5350 5345 5338 5331 5326 5320 5314 5309 5304 5301 5298 5295 5292
5551 5545 5539 5532 5525 5517 5508 5499 5490 5482 5475 5467 5458 5448 5438 5429 5418 5407 5395 5385 5376 5369 5360 5352 5347 5341 5336 5330 5323 5317 5311 5306 5302 5299 5296 5293 5290 5288
5542 5537 5531 5525 5518 5509 5501 5492 5483 5474 5466 5457 5447 5437 5428 5418 5409 5399 5388 5377 5367 5359 5353 5343 5336 5330 5327 5323 5316 5310 5305 5300 5296 5293 5290 5288 5286 5284
5534 5528 5523 5517 5510 5503 5495 5487 5479 5468 5458 5447 5437 5427 5417 5408 5399 5389 5380 5370 5359 5350 5344 5335 5327 5319 5312 5311 5309 5304 5299 5294 5291 5288 5285 5283 5282 5280
5529 5522 5515 5509 5502 5494 5486 5479 5470 5460 5448 5437 5427 5417 5408 5399 5390 5381 5372 5364 5355 5345 5338 5329 5319 5311 5304 5300 5299 5298 5294 5290 5287 5284 5281 5280 5278 5276
5521 5515 5508 5500 5492 5485 5478 5470 5460 5450 5439 5428 5418 5409 5400 5391 5382 5373 5364 5355 5347 5340 5332 5323 5314 5306 5298 5293 5291 5290 5287 5287 5283 5280 5278 5276 5275 5274
5511 5505 5498 5490 5482 5475 5467 5459 5450 5441 5431 5420 5410 5400 5391 5383 5374 5365 5355 5346 5337 5330 5325 5317 5310 5302 5295 5291 5286 5284 5281 5279 5279 5277 5275 5275 5274 5273
5502 5493 5484 5478 5470 5463 5455 5448 5439 5431 5421 5411 5401 5392 5384 5374 5366 5357 5347 5338 5328 5321 5315 5310 5304 5299 5295 5289 5284 5282 5279 5277 5275 5273 5273 5273 5274 5273
5494 5484 5477 5470 5463 5455 5447 5438 5430 5422 5413 5403 5394 5385 5375 5366 5357 5348 5340 5330 5321 5313 5307 5301 5296 5292 5289 5288 5285 5281 5277 5275 5274 5272 5269 5269 5272 5274
5485 5477 5470 5462 5455 5447 5439 5431 5422 5414 5404 5395 5386 5376 5367 5358 5349 5340 5332 5323 5315 5307 5300 5294 5288 5284 5280 5279 5281 5280 5275 5273 5272 5271 5269 5267 5268 5272
5477 5470 5463 5456 5448 5440 5432 5423 5414 5405 5396 5387 5377 5368 5359 5350 5341 5333 5325 5316 5308 5300 5294 5288 5283 5279 5275 5272 5272 5275 5275 5271 5270 5269 5269 5269 5269 5273
5469 5462 5456 5449 5441 5433 5425 5416 5407 5398 5389 5379 5370 5361 5351 5342 5334 5326 5318 5311 5303 5294 5288 5284 5280 5277 5273 5269 5267 5270 5273 5272 5270 5269 5269 5269 5269 5272
5462 5455 5448 5441 5434 5425 5417 5408 5399 5390 5381 5371 5362 5353 5344 5336 5328 5319 5311 5303 5296 5289 5284 5280 5277 5273 5269 5266 5265 5266 5268 5271 5272 5272 5270 5269 5267 5269
5455 5448 5441 5434 5426 5418 5409 5401 5392 5383 5374 5365 5355 5346 5337 5329 5321 5313 5305 5298 5291 5285 5280 5276 5273 5269 5266 5264 5262 5262 5264 5266 5269 5270 5272 5272 5271 5272